Weather observations for the past three days for
San Luis Obispo, San Luis Obispo County-Mc Chesney Field
Imperial (Metric)
Date Time (pdt) Wind (mph) Vis. (mi.) Weather Sky Cond. Temperature (ºF) Relative Humidity Wind Chill (°F) Heat Index (°F) Pressure Precipitation (in)
Air Dwpt 6 hour altimeter (in) sea level (mb) 1 hr 3 hr 6 hr
Max. Min.
02 22:56 NW 7 10.00 Partly Cloudy SCT008 60.1 57.9 72 60.1 93% 30.02 1016.3
02 21:56 NW 8 10.00 Mostly Cloudy BKN016 62.1 59 90% 30.02 1016.5
02 20:56 NW 12 10.00 Fair CLR 63 59 87% 30.01 1016.2
02 19:56 NW 15 10.00 Fair CLR 64 59 84% 30 1015.8
02 18:56 NW 15 10.00 Fair CLR 66.9 57 71% 30 1015.6
02 17:56 NW 17 10.00 Fair CLR 69.1 57 66% 30 1015.8
02 16:56 NW 16 10.00 Fair CLR 71.1 55.9 75.9 71.1 59% 30 1015.9
02 15:56 NW 18 10.00 Fair CLR 73 55 53% 30.02 1016.3
02 14:56 NW 23 10.00 Fair and Breezy CLR 73 55 53% 30.02 1016.4
02 13:56 NW 22 10.00 Fair and Breezy CLR 75 53.1 46% 78 30.02 1016.5
02 12:56 NW 17 9.00 Fair CLR 75 52 45% 78 30.03 1016.8
02 11:56 NW 15 10.00 Fair CLR 75 48.9 40% 77 30.04 1017.2
02 10:56 NW 12 10.00 Fair CLR 73 48.9 73.9 53.1 43% 30.05 1017.3
02 09:56 NW 12 10.00 Fair CLR 69.1 48.9 49% 30.05 1017.4
02 08:56 Calm 10.00 Fair CLR 61 53.1 75% 30.05 1017.4
02 07:56 Calm 7.00 Mostly Cloudy BKN002 54 54 100% 30.05 1017.6
02 06:56 SE 5 0.50 Sky Obscured VV002 53.1 53.1 100% 30.03 1017.0
02 05:56 W 3 0.25 Fog VV002 54 54 100% 30.03 1016.9
02 04:56 Calm 4.00 Fog/Mist OVC003 54 53.1 55.9 53.1 97% 30.04 1017.0
02 03:56 Calm 7.00 Overcast OVC004 55 53.1 93% 30.03 1016.7
02 02:56 SE 3 10.00 Mostly Cloudy BKN004 54 51.1 90% 30.03 1016.9
02 01:56 Calm 10.00 Fair CLR 54 50 87% 30.04 1017.1
02 00:56 SE 5 10.00 A Few Clouds FEW008 55 51.1 87% 30.04 1017.0
01 23:56 SE 3 10.00 A Few Clouds FEW009 55.9 53.1 90% 30.04 1017.0
01 22:56 NW 3 10.00 Fair CLR 59 55 69.1 59 87% 30.04 1016.9
01 21:56 NW 3 10.00 A Few Clouds FEW017 60.1 54 80% 30.05 1017.3
01 20:56 NW 8 10.00 A Few Clouds FEW014 60.1 55 84% 30.03 1016.6
01 19:56 NW 10 10.00 Partly Cloudy SCT017 62.1 55 78% 30.01 1016.0
01 18:56 NW 12 10.00 A Few Clouds FEW028 64 53.1 68% 30 1015.8
01 17:56 NW 17 10.00 Fair CLR 66.9 50 55% 30 1015.7
01 16:56 NW 18 10.00 Fair CLR 68 50 73 68 53% 30 1015.6
01 15:56 NW 16 10.00 Fair CLR 69.1 48.9 49% 30 1015.6
01 14:56 NW 18 10.00 Fair CLR 70 48.9 47% 30 1015.9
01 13:56 NW 21 G 26 10.00 Fair and Breezy CLR 72 48.9 44% 30.01 1015.9
01 12:56 NW 9 G 17 10.00 Fair CLR 71.1 48 44% 30.02 1016.3
01 11:56 N 5 10.00 Fair CLR 69.1 46.9 45% 30.03 1016.7
01 10:56 NW 12 G 21 10.00 A Few Clouds FEW030 69.1 48 70 55.9 47% 30.03 1016.9
01 09:56 NW 10 G 16 10.00 A Few Clouds FEW030 66.9 48.9 53% 30.03 1016.6
01 08:56 W 3 10.00 Fair CLR 62.1 52 70% 30.02 1016.5
01 07:56 Calm 10.00 Fair CLR 57.9 52 81% 30.02 1016.5
01 06:56 Calm 10.00 A Few Clouds FEW033 55.9 52 87% 30.01 1016.0
01 05:56 Calm 10.00 Smoke OVC032 57 52 83% 30 1015.7
01 04:56 SE 5 10.00 Smoke OVC029 57.9 52 59 55 81% 29.99 1015.4
01 03:56 SE 3 10.00 Smoke OVC026 57.9 52 81% 29.99 1015.3
01 02:56 SE 3 10.00 Smoke OVC025 57.9 52 81% 29.99 1015.3
01 01:56 SE 3 10.00 Smoke BKN023 OVC028 57 52 83% 29.99 1015.3
01 00:56 Calm 10.00 Smoke FEW019 55 51.1 87% 29.98 1015.0
31 23:56 Calm 10.00 Smoke SCT025 57.9 53.1 84% 29.98 1015.2
31 22:56 W 3 10.00 Smoke OVC016 57.9 52 66.9 57.9 81% 29.98 1015.2
31 21:56 N 6 10.00 Smoke BKN017 60.1 53.1 78% 29.97 1014.8
31 20:56 NW 6 10.00 Smoke CLR 59 52 78% 29.97 1014.7
31 18:56 NW 16 10.00 Smoke CLR 62.1 52 70% 29.93 1013.5
31 17:56 NW 16 10.00 Smoke CLR 64.9 52 63% 29.93 1013.2
31 15:56 NW 21 9.00 Smoke and Breezy CLR 68 52 57% 29.94 1013.6
31 13:56 NW 12 10.00 Fair CLR 71.1 52 51% 29.95 1013.9
31 12:56 Vrbl 5 10.00 Fair CLR 71.1 51.1 49% 29.96 1014.3
31 11:56 Vrbl 3 10.00 Fair CLR 66 51.1 59% 29.99 1015.2
31 10:56 Vrbl 5 9.00 Fair CLR 63 50 63 57 63% 30 1015.7
31 09:56 N 3 7.00 Overcast OVC019 60.1 50 70% 29.99 1015.5
31 08:56 W 3 6.00 Overcast with Haze OVC015 57.9 51.1 78% 29.98 1015.2
31 07:56 NW 6 7.00 Overcast OVC013 57 51.1 81% 29.97 1014.8
31 06:56 NW 5 8.00 Overcast OVC012 57 52 83% 29.95 1014.1
31 05:56 NW 3 6.00 Overcast with Haze OVC012 57.9 52 81% 29.94 1013.8
31 04:56 Vrbl 3 5.00 Overcast with Haze OVC012 57.9 53.1 59 57.9 84% 29.93 1013.4
31 03:56 NW 6 5.00 Overcast with Haze OVC012 57.9 53.1 84% 29.93 1013.5
31 02:56 NW 6 9.00 Overcast OVC013 57.9 53.1 84% 29.93 1013.4
31 01:56 NW 6 9.00 Overcast OVC012 59 54 83% 29.94 1013.6
31 00:56 NW 9 8.00 Overcast OVC011 59 54 83% 29.94 1013.8
30 23:56 NW 8 8.00 Overcast OVC011 59 54 83% 29.94 1013.7
Date Time (pdt) Wind (mph) Vis. (mi.) Weather Sky Cond. Air Dwpt Max. Min. Relative Humidity Wind Chill (°F) Heat Index (°F) altimeter (in) sea level (mb) 1 hr 3 hr 6 hr
6 hour
Temperature (ºF) Pressure Precipitation (in)